User: anonymous   Login
Location: Unspecified
(0.0000°N, 0.0000°E)
Time: 14:42:13
(UTC+02:00)
Language:

ARIANE 5 R/B - Orbit

View from above orbital plane
View from above orbital plane
View from above satellite
View from above satellite

Ground track
Ground track

The orbit data is extracted from the following two-line orbital elements,

1 27510U 02040C   18114.70640734 +.00000082 +00000-0 +70507-3 0  9999
2 27510 005.3070 085.4693 7156745 216.3987 193.7787 02.27200526129974
Epoch (UTC): 24 April 2018 16:57:13
Eccentricity: 0.7156745
inclination: 5.3070°
perigee height: 571 km
apogee height: 35555 km
right ascension of ascending node: 85.4693°
argument of perigee: 216.3987°
revolutions per day: 2.27200526
mean anomaly at epoch: 193.7787°
orbit number at epoch: 12997

The dashed part of the orbit path shows where the satellite is in the earth's shadow,  

DLR